Year,Month,Day,Hour,Minute,Value (Times are PST for temperature in C)
2019,04,20,00,00,7.60
2019,04,20,00,01,7.60
2019,04,20,00,02,7.60
2019,04,20,00,03,7.50
2019,04,20,00,04,7.60
2019,04,20,00,05,7.50
2019,04,20,00,06,7.50
2019,04,20,00,07,7.50
2019,04,20,00,08,7.50
2019,04,20,00,09,7.50
2019,04,20,00,10,7.50
2019,04,20,00,11,7.40
2019,04,20,00,12,7.40
2019,04,20,00,13,7.50
2019,04,20,00,14,7.50
2019,04,20,00,15,7.60
2019,04,20,00,16,7.70
2019,04,20,00,17,7.70
2019,04,20,00,18,7.80
2019,04,20,00,19,7.80
2019,04,20,00,20,7.80
2019,04,20,00,21,7.90
2019,04,20,00,22,7.90
2019,04,20,00,23,7.90
2019,04,20,00,24,7.90
2019,04,20,00,25,7.90
2019,04,20,00,26,7.90
2019,04,20,00,27,7.90
2019,04,20,00,28,7.90
2019,04,20,00,29,7.90
2019,04,20,00,30,7.90
2019,04,20,00,31,7.90
2019,04,20,00,32,7.80
2019,04,20,00,33,7.80
2019,04,20,00,34,7.80
2019,04,20,00,35,7.70
2019,04,20,00,36,7.70
2019,04,20,00,37,7.60
2019,04,20,00,38,7.60
2019,04,20,00,39,7.50
2019,04,20,00,40,7.50
2019,04,20,00,41,7.40
2019,04,20,00,42,7.30
2019,04,20,00,43,7.30
2019,04,20,00,44,7.20
2019,04,20,00,45,7.10
2019,04,20,00,46,7.10
2019,04,20,00,47,7.10
2019,04,20,00,48,7.10
2019,04,20,00,49,7.00
2019,04,20,00,50,7.00
2019,04,20,00,51,7.00
2019,04,20,00,52,7.00
2019,04,20,00,53,6.90
2019,04,20,00,54,6.90
2019,04,20,00,55,6.80
2019,04,20,00,56,6.80
2019,04,20,00,57,6.80
2019,04,20,00,58,6.70
2019,04,20,00,59,6.70
2019,04,20,01,00,6.60
2019,04,20,01,01,6.60
2019,04,20,01,02,6.60
2019,04,20,01,03,6.50
2019,04,20,01,04,6.50
2019,04,20,01,05,6.40
2019,04,20,01,06,6.40
2019,04,20,01,07,6.30
2019,04,20,01,08,6.30
2019,04,20,01,09,6.30
2019,04,20,01,10,6.20
2019,04,20,01,11,6.20
2019,04,20,01,12,6.10
2019,04,20,01,13,6.10
2019,04,20,01,14,6.10
2019,04,20,01,15,6.00
2019,04,20,01,16,5.90
2019,04,20,01,17,5.90
2019,04,20,01,18,5.80
2019,04,20,01,19,5.80
2019,04,20,01,20,5.70
2019,04,20,01,21,5.70
2019,04,20,01,22,5.70
2019,04,20,01,23,5.60
2019,04,20,01,24,5.60
2019,04,20,01,25,5.50
2019,04,20,01,26,5.50
2019,04,20,01,27,5.40
2019,04,20,01,28,5.40
2019,04,20,01,29,5.40
2019,04,20,01,30,5.30
2019,04,20,01,31,5.30
2019,04,20,01,32,5.30
2019,04,20,01,33,5.30
2019,04,20,01,34,5.20
2019,04,20,01,35,5.20
2019,04,20,01,36,5.20
2019,04,20,01,37,5.10
2019,04,20,01,38,5.10
2019,04,20,01,39,5.10
2019,04,20,01,40,5.00
2019,04,20,01,41,5.00
2019,04,20,01,42,4.90
2019,04,20,01,43,4.90
2019,04,20,01,44,4.90
2019,04,20,01,45,4.90
2019,04,20,01,46,4.80
2019,04,20,01,47,4.80
2019,04,20,01,48,4.80
2019,04,20,01,49,4.80
2019,04,20,01,50,4.80
2019,04,20,01,51,4.80
2019,04,20,01,52,4.80
2019,04,20,01,53,4.80
2019,04,20,01,54,4.90
2019,04,20,01,55,4.90
2019,04,20,01,56,5.00
2019,04,20,01,57,5.00
2019,04,20,01,58,5.10
2019,04,20,01,59,5.10
2019,04,20,02,00,5.10
2019,04,20,02,01,5.20
2019,04,20,02,02,5.20
2019,04,20,02,03,5.20
2019,04,20,02,04,5.20
2019,04,20,02,05,5.20
2019,04,20,02,06,5.20
2019,04,20,02,07,5.20
2019,04,20,02,08,5.30
2019,04,20,02,09,5.30
2019,04,20,02,10,5.40
2019,04,20,02,11,5.50
2019,04,20,02,12,5.50
2019,04,20,02,13,5.50
2019,04,20,02,14,5.50
2019,04,20,02,15,5.60
2019,04,20,02,16,5.60
2019,04,20,02,17,5.60
2019,04,20,02,18,5.60
2019,04,20,02,19,5.50
2019,04,20,02,20,5.50
2019,04,20,02,21,5.50
2019,04,20,02,22,5.50
2019,04,20,02,23,5.40
2019,04,20,02,24,5.40
2019,04,20,02,25,5.30
2019,04,20,02,26,5.30
2019,04,20,02,27,5.30
2019,04,20,02,28,5.30
2019,04,20,02,29,5.20
2019,04,20,02,30,5.20
2019,04,20,02,31,5.10
2019,04,20,02,32,5.10
2019,04,20,02,33,5.00
2019,04,20,02,34,5.00
2019,04,20,02,35,5.00
2019,04,20,02,36,4.90
2019,04,20,02,37,4.80
2019,04,20,02,38,4.80
2019,04,20,02,39,4.80
2019,04,20,02,40,4.70
2019,04,20,02,41,4.70
2019,04,20,02,42,4.70
2019,04,20,02,43,4.60
2019,04,20,02,44,4.50
2019,04,20,02,45,4.50
2019,04,20,02,46,4.40
2019,04,20,02,47,4.40
2019,04,20,02,48,4.30
2019,04,20,02,49,4.30
2019,04,20,02,50,4.30
2019,04,20,02,51,4.30
2019,04,20,02,52,4.20
2019,04,20,02,53,4.20
2019,04,20,02,54,4.20
2019,04,20,02,55,4.10
2019,04,20,02,56,4.10
2019,04,20,02,57,4.10
2019,04,20,02,58,4.10
2019,04,20,02,59,4.00
2019,04,20,03,00,4.00
2019,04,20,03,01,4.00
2019,04,20,03,02,4.00
2019,04,20,03,03,4.00
2019,04,20,03,04,3.90
2019,04,20,03,05,3.90
2019,04,20,03,06,3.90
2019,04,20,03,07,3.90
2019,04,20,03,08,3.90
2019,04,20,03,09,3.80
2019,04,20,03,10,3.80
2019,04,20,03,11,3.80
2019,04,20,03,12,3.80
2019,04,20,03,13,3.80
2019,04,20,03,14,3.80
2019,04,20,03,15,3.80
2019,04,20,03,16,3.80
2019,04,20,03,17,3.80
2019,04,20,03,18,3.80
2019,04,20,03,19,3.80
2019,04,20,03,20,3.80
2019,04,20,03,21,3.80
2019,04,20,03,22,3.70
2019,04,20,03,23,3.70
2019,04,20,03,24,3.70
2019,04,20,03,25,3.70
2019,04,20,03,26,3.70
2019,04,20,03,27,3.70
2019,04,20,03,28,3.70
2019,04,20,03,29,3.70
2019,04,20,03,30,3.70
2019,04,20,03,31,3.70
2019,04,20,03,32,3.70
2019,04,20,03,33,3.70
2019,04,20,03,34,3.70
2019,04,20,03,35,3.70
2019,04,20,03,36,3.70
2019,04,20,03,37,3.70
2019,04,20,03,38,3.70
2019,04,20,03,39,3.70
2019,04,20,03,40,3.70
2019,04,20,03,41,3.70
2019,04,20,03,42,3.70
2019,04,20,03,43,3.70
2019,04,20,03,44,3.70
2019,04,20,03,45,3.60
2019,04,20,03,46,3.60
2019,04,20,03,47,3.60
2019,04,20,03,48,3.60
2019,04,20,03,49,3.60
2019,04,20,03,50,3.60
2019,04,20,03,51,3.60
2019,04,20,03,52,3.50
2019,04,20,03,53,3.50
2019,04,20,03,54,3.50
2019,04,20,03,55,3.50
2019,04,20,03,56,3.50
2019,04,20,03,57,3.50
2019,04,20,03,58,3.50
2019,04,20,03,59,3.60
2019,04,20,04,00,3.60
2019,04,20,04,01,3.60
2019,04,20,04,02,3.60
2019,04,20,04,03,3.60
2019,04,20,04,04,3.60
2019,04,20,04,05,3.60
2019,04,20,04,06,3.60
2019,04,20,04,07,3.60
2019,04,20,04,08,3.50
2019,04,20,04,09,3.50
2019,04,20,04,10,3.50
2019,04,20,04,11,3.50
2019,04,20,04,12,3.50
2019,04,20,04,13,3.50
2019,04,20,04,14,3.50
2019,04,20,04,15,3.50
2019,04,20,04,16,3.50
2019,04,20,04,17,3.50
2019,04,20,04,18,3.50
2019,04,20,04,19,3.50
2019,04,20,04,20,3.50
2019,04,20,04,21,3.50
2019,04,20,04,22,3.50
2019,04,20,04,23,3.50
2019,04,20,04,24,3.40
2019,04,20,04,25,3.40
2019,04,20,04,26,3.40
2019,04,20,04,27,3.40
2019,04,20,04,28,3.40
2019,04,20,04,29,3.40
2019,04,20,04,30,3.40
2019,04,20,04,31,3.40
2019,04,20,04,32,3.40
2019,04,20,04,33,3.40
2019,04,20,04,34,3.40
2019,04,20,04,35,3.40
2019,04,20,04,36,3.40
2019,04,20,04,37,3.40
2019,04,20,04,38,3.40
2019,04,20,04,39,3.40
2019,04,20,04,40,3.40
2019,04,20,04,41,3.40
2019,04,20,04,42,3.40
2019,04,20,04,43,3.40
2019,04,20,04,44,3.40
2019,04,20,04,45,3.40
2019,04,20,04,46,3.40
2019,04,20,04,47,3.40
2019,04,20,04,48,3.40
2019,04,20,04,49,3.40
2019,04,20,04,50,3.30
2019,04,20,04,51,3.30
2019,04,20,04,52,3.30
2019,04,20,04,53,3.30
2019,04,20,04,54,3.30
2019,04,20,04,55,3.30
2019,04,20,04,56,3.30
2019,04,20,04,57,3.30
2019,04,20,04,58,3.30
2019,04,20,04,59,3.30
2019,04,20,05,00,3.30
2019,04,20,05,01,3.30
2019,04,20,05,02,3.30
2019,04,20,05,03,3.30
2019,04,20,05,04,3.30
2019,04,20,05,05,3.30
2019,04,20,05,06,3.30
2019,04,20,05,07,3.30
2019,04,20,05,08,3.30
2019,04,20,05,09,3.20
2019,04,20,05,10,3.20
2019,04,20,05,11,3.20
2019,04,20,05,12,3.20
2019,04,20,05,13,3.20
2019,04,20,05,14,3.20
2019,04,20,05,15,3.20
2019,04,20,05,16,3.20
2019,04,20,05,17,3.20
2019,04,20,05,18,3.20
2019,04,20,05,19,3.20
2019,04,20,05,20,3.20
2019,04,20,05,21,3.20
2019,04,20,05,22,3.20
2019,04,20,05,23,3.20
2019,04,20,05,24,3.20
2019,04,20,05,25,3.20
2019,04,20,05,26,3.20
2019,04,20,05,27,3.20
2019,04,20,05,28,3.20
2019,04,20,05,29,3.20
2019,04,20,05,30,3.20
2019,04,20,05,31,3.20
2019,04,20,05,32,3.20
2019,04,20,05,33,3.20
2019,04,20,05,34,3.20
2019,04,20,05,35,3.20
2019,04,20,05,36,3.20
2019,04,20,05,37,3.20
2019,04,20,05,38,3.20
2019,04,20,05,39,3.20
2019,04,20,05,40,3.20
2019,04,20,05,41,3.20
2019,04,20,05,42,3.20
2019,04,20,05,43,3.20
2019,04,20,05,44,3.20
2019,04,20,05,45,3.20
2019,04,20,05,46,3.20
2019,04,20,05,47,3.20
2019,04,20,05,48,3.20
2019,04,20,05,49,3.20
2019,04,20,05,50,3.10
2019,04,20,05,51,3.20
2019,04,20,05,52,3.10
2019,04,20,05,53,3.10
2019,04,20,05,54,3.10
2019,04,20,05,55,3.10
2019,04,20,05,56,3.10
2019,04,20,05,57,3.10
2019,04,20,05,58,3.10
2019,04,20,05,59,3.10
2019,04,20,06,00,3.10
2019,04,20,06,01,3.10
2019,04,20,06,02,3.10
2019,04,20,06,03,3.10
2019,04,20,06,04,3.10
2019,04,20,06,05,3.10
2019,04,20,06,06,3.10
2019,04,20,06,07,3.00
2019,04,20,06,08,3.00
2019,04,20,06,09,3.00
2019,04,20,06,10,3.00
2019,04,20,06,11,3.00
2019,04,20,06,12,3.00
2019,04,20,06,13,3.00
2019,04,20,06,14,3.00
2019,04,20,06,15,3.00
2019,04,20,06,16,3.10
2019,04,20,06,17,3.10
2019,04,20,06,18,3.00
2019,04,20,06,19,3.00
2019,04,20,06,20,3.00
2019,04,20,06,21,3.00
2019,04,20,06,22,3.00
2019,04,20,06,23,3.00
2019,04,20,06,24,3.00
2019,04,20,06,25,3.00
2019,04,20,06,26,3.00
2019,04,20,06,27,3.10
2019,04,20,06,28,3.10
2019,04,20,06,29,3.10
2019,04,20,06,30,3.10
2019,04,20,06,31,3.10
2019,04,20,06,32,3.10
2019,04,20,06,33,3.10
2019,04,20,06,34,3.10
2019,04,20,06,35,3.10
2019,04,20,06,36,3.10
2019,04,20,06,37,3.10
2019,04,20,06,38,3.10
2019,04,20,06,39,3.10
2019,04,20,06,40,3.10
2019,04,20,06,41,3.10
2019,04,20,06,42,3.10
2019,04,20,06,43,3.10
2019,04,20,06,44,3.10
2019,04,20,06,45,3.10
2019,04,20,06,46,3.10
2019,04,20,06,47,3.10
2019,04,20,06,48,3.10
2019,04,20,06,49,3.10
2019,04,20,06,50,3.10
2019,04,20,06,51,3.10
2019,04,20,06,52,3.10
2019,04,20,06,53,3.10
2019,04,20,06,54,3.10
2019,04,20,06,55,3.10
2019,04,20,06,56,3.10
2019,04,20,06,57,3.10
2019,04,20,06,58,3.10
2019,04,20,06,59,3.10
2019,04,20,07,00,3.20
2019,04,20,07,01,3.20
2019,04,20,07,02,3.20
2019,04,20,07,03,3.20
2019,04,20,07,04,3.20
2019,04,20,07,05,3.20
2019,04,20,07,06,3.20
2019,04,20,07,07,3.20
2019,04,20,07,08,3.20
2019,04,20,07,09,3.20
2019,04,20,07,10,3.20
2019,04,20,07,11,3.20
2019,04,20,07,12,3.20
2019,04,20,07,13,3.20
2019,04,20,07,14,3.20
2019,04,20,07,15,3.20
2019,04,20,07,16,3.20
2019,04,20,07,17,3.20
2019,04,20,07,18,3.30
2019,04,20,07,19,3.30
2019,04,20,07,20,3.30
2019,04,20,07,21,3.30
2019,04,20,07,22,3.40
2019,04,20,07,23,3.40
2019,04,20,07,24,3.40
2019,04,20,07,25,3.50
2019,04,20,07,26,3.60
2019,04,20,07,27,3.60
2019,04,20,07,28,3.70
2019,04,20,07,29,3.80
2019,04,20,07,30,3.90
2019,04,20,07,31,3.90
2019,04,20,07,32,4.00
2019,04,20,07,33,4.10
2019,04,20,07,34,4.20
2019,04,20,07,35,4.30
2019,04,20,07,36,4.30
2019,04,20,07,37,4.40
2019,04,20,07,38,4.50
2019,04,20,07,39,4.60
2019,04,20,07,40,4.60
2019,04,20,07,41,4.70
2019,04,20,07,42,4.80
2019,04,20,07,43,4.80
2019,04,20,07,44,4.90
2019,04,20,07,45,4.90
2019,04,20,07,46,5.00
2019,04,20,07,47,5.10
2019,04,20,07,48,5.10
2019,04,20,07,49,5.20
2019,04,20,07,50,5.30
2019,04,20,07,51,5.40
2019,04,20,07,52,5.50
2019,04,20,07,53,5.60
2019,04,20,07,54,5.70
2019,04,20,07,55,5.80
2019,04,20,07,56,5.90
2019,04,20,07,57,6.00
2019,04,20,07,58,6.10
2019,04,20,07,59,6.20
2019,04,20,08,00,6.30
2019,04,20,08,01,6.40
2019,04,20,08,02,6.50
2019,04,20,08,03,6.60
2019,04,20,08,04,6.70
2019,04,20,08,05,6.80
2019,04,20,08,06,6.90
2019,04,20,08,07,7.00
2019,04,20,08,08,7.10
2019,04,20,08,09,7.20
2019,04,20,08,10,7.20
2019,04,20,08,11,7.30
2019,04,20,08,12,7.40
2019,04,20,08,13,7.40
2019,04,20,08,14,7.50
2019,04,20,08,15,7.50
2019,04,20,08,16,7.60
2019,04,20,08,17,7.70
2019,04,20,08,18,7.70
2019,04,20,08,19,7.90
2019,04,20,08,20,8.00
2019,04,20,08,21,8.10
2019,04,20,08,22,8.20
2019,04,20,08,23,8.20
2019,04,20,08,24,8.30
2019,04,20,08,25,8.40
2019,04,20,08,26,8.40
2019,04,20,08,27,8.40
2019,04,20,08,28,8.40
2019,04,20,08,29,8.40
2019,04,20,08,30,8.50
2019,04,20,08,31,8.50
2019,04,20,08,32,8.60
2019,04,20,08,33,8.60
2019,04,20,08,34,8.70
2019,04,20,08,35,8.80
2019,04,20,08,36,8.80
2019,04,20,08,37,8.90
2019,04,20,08,38,8.90
2019,04,20,08,39,8.90
2019,04,20,08,40,9.00
2019,04,20,08,41,9.00
2019,04,20,08,42,9.00
2019,04,20,08,43,9.10
2019,04,20,08,44,9.10
2019,04,20,08,45,9.10
2019,04,20,08,46,9.10
2019,04,20,08,47,9.10
2019,04,20,08,48,9.10
2019,04,20,08,49,9.10
2019,04,20,08,50,9.20
2019,04,20,08,51,9.20
2019,04,20,08,52,9.30
2019,04,20,08,53,9.40
2019,04,20,08,54,9.40
2019,04,20,08,55,9.40
2019,04,20,08,56,9.50
2019,04,20,08,57,9.50
2019,04,20,08,58,9.60
2019,04,20,08,59,9.60
2019,04,20,09,00,9.60
2019,04,20,09,01,9.60
2019,04,20,09,02,9.70
2019,04,20,09,03,9.70
2019,04,20,09,04,9.70
2019,04,20,09,05,9.70
2019,04,20,09,06,9.60
2019,04,20,09,07,9.60
2019,04,20,09,08,9.60
2019,04,20,09,09,9.60
2019,04,20,09,10,9.60
2019,04,20,09,11,9.60
2019,04,20,09,12,9.60
2019,04,20,09,13,9.60
2019,04,20,09,14,9.60
2019,04,20,09,15,9.70
2019,04,20,09,16,9.70
2019,04,20,09,17,9.80
2019,04,20,09,18,9.90
2019,04,20,09,19,9.90
2019,04,20,09,20,9.90
2019,04,20,09,21,10.00
2019,04,20,09,22,10.00
2019,04,20,09,23,10.10
2019,04,20,09,24,10.10
2019,04,20,09,25,10.10
2019,04,20,09,26,10.10
2019,04,20,09,27,10.10
2019,04,20,09,28,10.10
2019,04,20,09,29,10.10
2019,04,20,09,30,10.10
2019,04,20,09,31,10.20
2019,04,20,09,32,10.20
2019,04,20,09,33,10.30
2019,04,20,09,34,10.30
2019,04,20,09,35,10.30
2019,04,20,09,36,10.40
2019,04,20,09,37,10.30
2019,04,20,09,38,10.30
2019,04,20,09,39,10.30
2019,04,20,09,40,10.30
2019,04,20,09,41,10.30
2019,04,20,09,42,10.30
2019,04,20,09,43,10.30
2019,04,20,09,44,10.30
2019,04,20,09,45,10.40
2019,04,20,09,46,10.40
2019,04,20,09,47,10.40
2019,04,20,09,48,10.40
2019,04,20,09,49,10.50
2019,04,20,09,50,10.50
2019,04,20,09,51,10.50
2019,04,20,09,52,10.50
2019,04,20,09,53,10.40
2019,04,20,09,54,10.30
2019,04,20,09,55,10.30
2019,04,20,09,56,10.30
2019,04,20,09,57,10.20
2019,04,20,09,58,10.20
2019,04,20,09,59,10.30
2019,04,20,10,00,10.30
2019,04,20,10,01,10.30
2019,04,20,10,02,10.30
2019,04,20,10,03,10.30
2019,04,20,10,04,10.30
2019,04,20,10,05,10.30
2019,04,20,10,06,10.30
2019,04,20,10,07,10.30
2019,04,20,10,08,10.30
2019,04,20,10,09,10.40
2019,04,20,10,10,10.40
2019,04,20,10,11,10.40
2019,04,20,10,12,10.40
2019,04,20,10,13,10.40
2019,04,20,10,14,10.50
2019,04,20,10,15,10.50
2019,04,20,10,16,10.50
2019,04,20,10,17,10.60
2019,04,20,10,18,10.60
2019,04,20,10,19,10.70
2019,04,20,10,20,10.80
2019,04,20,10,21,10.80
2019,04,20,10,22,10.80
2019,04,20,10,23,10.90
2019,04,20,10,24,10.90
2019,04,20,10,25,11.00
2019,04,20,10,26,11.10
2019,04,20,10,27,11.20
2019,04,20,10,28,11.40
2019,04,20,10,29,11.50
2019,04,20,10,30,11.60
2019,04,20,10,31,11.60
2019,04,20,10,32,11.50
2019,04,20,10,33,11.50
2019,04,20,10,34,11.40
2019,04,20,10,35,11.40
2019,04,20,10,36,11.40
2019,04,20,10,37,11.40
2019,04,20,10,38,11.40
2019,04,20,10,39,11.40
2019,04,20,10,40,11.50
2019,04,20,10,41,11.50
2019,04,20,10,42,11.50
2019,04,20,10,43,11.50
2019,04,20,10,44,11.40
2019,04,20,10,45,11.40
2019,04,20,10,46,11.40
2019,04,20,10,47,11.40
2019,04,20,10,48,11.40
2019,04,20,10,49,11.40
2019,04,20,10,50,11.40
2019,04,20,10,51,11.30
2019,04,20,10,52,11.30
2019,04,20,10,53,11.20
2019,04,20,10,54,11.20
2019,04,20,10,55,11.10
2019,04,20,10,56,11.20
2019,04,20,10,57,11.20
2019,04,20,10,58,11.20
2019,04,20,10,59,11.20
2019,04,20,11,00,11.20
2019,04,20,11,01,11.20
2019,04,20,11,02,11.30
2019,04,20,11,03,11.30
2019,04,20,11,04,11.30
2019,04,20,11,05,11.30
2019,04,20,11,06,11.30
2019,04,20,11,07,11.30
2019,04,20,11,08,11.20
2019,04,20,11,09,11.20
2019,04,20,11,10,11.30
2019,04,20,11,11,11.30
2019,04,20,11,12,11.40
2019,04,20,11,13,11.50
2019,04,20,11,14,11.60
2019,04,20,11,15,11.70
2019,04,20,11,16,11.70
2019,04,20,11,17,11.80
2019,04,20,11,18,11.80
2019,04,20,11,19,11.80
2019,04,20,11,20,11.90
2019,04,20,11,21,12.00
2019,04,20,11,22,12.10
2019,04,20,11,23,12.20
2019,04,20,11,24,12.20
2019,04,20,11,25,12.30
2019,04,20,11,26,12.40
2019,04,20,11,27,12.50
2019,04,20,11,28,12.60
2019,04,20,11,29,12.80
2019,04,20,11,30,12.80
2019,04,20,11,31,12.80
2019,04,20,11,32,12.90
2019,04,20,11,33,12.80
2019,04,20,11,34,12.70
2019,04,20,11,35,12.60
2019,04,20,11,36,12.50
2019,04,20,11,37,12.50
2019,04,20,11,38,12.50
2019,04,20,11,39,12.40
2019,04,20,11,40,12.40
2019,04,20,11,41,12.40
2019,04,20,11,42,12.40
2019,04,20,11,43,12.40
2019,04,20,11,44,12.30
2019,04,20,11,45,12.30
2019,04,20,11,46,12.30
2019,04,20,11,47,12.40
2019,04,20,11,48,12.40
2019,04,20,11,49,12.50
2019,04,20,11,50,12.50
2019,04,20,11,51,12.60
2019,04,20,11,52,12.60
2019,04,20,11,53,12.50
2019,04,20,11,54,12.50
2019,04,20,11,55,12.40
2019,04,20,11,56,12.50
2019,04,20,11,57,12.60
2019,04,20,11,58,12.70
2019,04,20,11,59,12.70
2019,04,20,12,00,12.70
2019,04,20,12,01,12.70
2019,04,20,12,02,12.80
2019,04,20,12,03,12.80
2019,04,20,12,04,12.90
2019,04,20,12,05,12.90
2019,04,20,12,06,12.90
2019,04,20,12,07,12.90
2019,04,20,12,08,12.90
2019,04,20,12,09,12.90
2019,04,20,12,10,13.00
2019,04,20,12,11,13.00
2019,04,20,12,12,13.00
2019,04,20,12,13,13.00
2019,04,20,12,14,12.90
2019,04,20,12,15,12.90
2019,04,20,12,16,12.90
2019,04,20,12,17,12.90
2019,04,20,12,18,12.80
2019,04,20,12,19,12.80
2019,04,20,12,20,12.70
2019,04,20,12,21,12.70
2019,04,20,12,22,12.60
2019,04,20,12,23,12.60
2019,04,20,12,24,12.70
2019,04,20,12,25,12.70
2019,04,20,12,26,12.70
2019,04,20,12,27,12.70
2019,04,20,12,28,12.80
2019,04,20,12,29,12.80
2019,04,20,12,30,12.90
2019,04,20,12,31,12.90
2019,04,20,12,32,12.90
2019,04,20,12,33,13.00
2019,04,20,12,34,13.00
2019,04,20,12,35,12.90
2019,04,20,12,36,12.90
2019,04,20,12,37,12.90
2019,04,20,12,38,12.90
2019,04,20,12,39,13.00
2019,04,20,12,40,13.10
2019,04,20,12,41,13.20
2019,04,20,12,42,13.30
2019,04,20,12,43,13.40
2019,04,20,12,44,13.60
2019,04,20,12,45,13.70
2019,04,20,12,46,13.70
2019,04,20,12,47,13.60
2019,04,20,12,48,13.60
2019,04,20,12,49,13.60
2019,04,20,12,50,13.60
2019,04,20,12,51,13.50
2019,04,20,12,52,13.40
2019,04,20,12,53,13.30
2019,04,20,12,54,13.30
2019,04,20,12,55,13.30
2019,04,20,12,56,13.30
2019,04,20,12,57,13.30
2019,04,20,12,58,13.30
2019,04,20,12,59,13.30
2019,04,20,13,00,13.40
2019,04,20,13,01,13.40
2019,04,20,13,02,13.40
2019,04,20,13,03,13.50
2019,04,20,13,04,13.60
2019,04,20,13,05,13.70
2019,04,20,13,06,13.80
2019,04,20,13,07,13.90
2019,04,20,13,08,14.00
2019,04,20,13,09,14.00
2019,04,20,13,10,14.10
2019,04,20,13,11,14.00
2019,04,20,13,12,14.00
2019,04,20,13,13,14.00
2019,04,20,13,14,14.10
2019,04,20,13,15,14.10
2019,04,20,13,16,14.20
2019,04,20,13,17,14.20
2019,04,20,13,18,14.30
2019,04,20,13,19,14.30
2019,04,20,13,20,14.30
2019,04,20,13,21,14.30
2019,04,20,13,22,14.30
2019,04,20,13,23,14.30
2019,04,20,13,24,14.20
2019,04,20,13,25,14.20
2019,04,20,13,26,14.20
2019,04,20,13,27,14.20
2019,04,20,13,28,14.20
2019,04,20,13,29,14.20
2019,04,20,13,30,14.30
2019,04,20,13,31,14.30
2019,04,20,13,32,14.30
2019,04,20,13,33,14.40
2019,04,20,13,34,14.50
2019,04,20,13,35,14.50
2019,04,20,13,36,14.60
2019,04,20,13,37,14.60
2019,04,20,13,38,14.60
2019,04,20,13,39,14.70
2019,04,20,13,40,14.80
2019,04,20,13,41,14.80
2019,04,20,13,42,14.90
2019,04,20,13,43,14.90
2019,04,20,13,44,15.00
2019,04,20,13,45,15.00
2019,04,20,13,46,15.10
2019,04,20,13,47,15.10
2019,04,20,13,48,15.10
2019,04,20,13,49,15.20
2019,04,20,13,50,15.30
2019,04,20,13,51,15.30
2019,04,20,13,52,15.40
2019,04,20,13,53,15.40
2019,04,20,13,54,15.40
2019,04,20,13,55,15.40
2019,04,20,13,56,15.40
2019,04,20,13,57,15.50
2019,04,20,13,58,15.50
2019,04,20,13,59,15.50
2019,04,20,14,00,15.60
2019,04,20,14,01,15.60
2019,04,20,14,02,15.60
2019,04,20,14,03,15.70
2019,04,20,14,04,15.70
2019,04,20,14,05,15.80
2019,04,20,14,06,15.70
2019,04,20,14,07,15.70
2019,04,20,14,08,15.60
2019,04,20,14,09,15.40
2019,04,20,14,10,15.30
2019,04,20,14,11,15.20
2019,04,20,14,12,15.10
2019,04,20,14,13,15.00
2019,04,20,14,14,15.00
2019,04,20,14,15,14.90
2019,04,20,14,16,14.80
2019,04,20,14,17,14.80
2019,04,20,14,18,14.80
2019,04,20,14,19,14.80
2019,04,20,14,20,14.80
2019,04,20,14,21,14.70
2019,04,20,14,22,14.60
2019,04,20,14,23,14.50
2019,04,20,14,24,14.40
2019,04,20,14,25,14.30
2019,04,20,14,26,14.30
2019,04,20,14,27,14.20
2019,04,20,14,28,14.20
2019,04,20,14,29,14.20
2019,04,20,14,30,14.20
2019,04,20,14,31,14.10
2019,04,20,14,32,14.10
2019,04,20,14,33,14.10
2019,04,20,14,34,14.20
2019,04,20,14,35,14.20
2019,04,20,14,36,14.20
2019,04,20,14,37,14.30
2019,04,20,14,38,14.30
2019,04,20,14,39,14.30
2019,04,20,14,40,14.30
2019,04,20,14,41,14.40
2019,04,20,14,42,14.40
2019,04,20,14,43,14.40
2019,04,20,14,44,14.50
2019,04,20,14,45,14.50
2019,04,20,14,46,14.40
2019,04,20,14,47,14.30
2019,04,20,14,48,14.30
2019,04,20,14,49,14.30
2019,04,20,14,50,14.30
2019,04,20,14,51,14.30
2019,04,20,14,52,14.30
2019,04,20,14,53,14.30
2019,04,20,14,54,14.30
2019,04,20,14,55,14.30
2019,04,20,14,56,14.40
2019,04,20,14,57,14.40
2019,04,20,14,58,14.40
2019,04,20,14,59,14.50
2019,04,20,15,00,14.60
2019,04,20,15,01,14.70
2019,04,20,15,02,14.80
2019,04,20,15,03,14.90
2019,04,20,15,04,14.90
2019,04,20,15,05,15.00
2019,04,20,15,06,15.00
2019,04,20,15,07,15.10
2019,04,20,15,08,15.20
2019,04,20,15,09,15.30
2019,04,20,15,10,15.40
2019,04,20,15,11,15.40
2019,04,20,15,12,15.40
2019,04,20,15,13,15.40
2019,04,20,15,14,15.40
2019,04,20,15,15,15.40
2019,04,20,15,16,15.30
2019,04,20,15,17,15.10
2019,04,20,15,18,15.00
2019,04,20,15,19,14.90
2019,04,20,15,20,14.90
2019,04,20,15,21,14.80
2019,04,20,15,22,14.80
2019,04,20,15,23,14.70
2019,04,20,15,24,14.70
2019,04,20,15,25,14.70
2019,04,20,15,26,14.70
2019,04,20,15,27,14.70
2019,04,20,15,28,14.70
2019,04,20,15,29,14.60
2019,04,20,15,30,14.60
2019,04,20,15,31,14.60
2019,04,20,15,32,14.50
2019,04,20,15,33,14.50
2019,04,20,15,34,14.50
2019,04,20,15,35,14.50
2019,04,20,15,36,14.50
2019,04,20,15,37,14.40
2019,04,20,15,38,14.40
2019,04,20,15,39,14.40
2019,04,20,15,40,14.40
2019,04,20,15,41,14.40
2019,04,20,15,42,14.40
2019,04,20,15,43,14.40
2019,04,20,15,44,14.40
2019,04,20,15,45,14.50
2019,04,20,15,46,14.50
2019,04,20,15,47,14.50
2019,04,20,15,48,14.60
2019,04,20,15,49,14.60
2019,04,20,15,50,14.60
2019,04,20,15,51,14.50
2019,04,20,15,52,14.50
2019,04,20,15,53,14.50
2019,04,20,15,54,14.50
2019,04,20,15,55,14.50
2019,04,20,15,56,14.50
2019,04,20,15,57,14.50
2019,04,20,15,58,14.50
2019,04,20,15,59,14.50
2019,04,20,16,00,14.50
2019,04,20,16,01,14.60
2019,04,20,16,02,14.70
2019,04,20,16,03,14.70
2019,04,20,16,04,14.80
2019,04,20,16,05,14.80
2019,04,20,16,06,14.90
2019,04,20,16,07,14.80
2019,04,20,16,08,14.90
2019,04,20,16,09,14.90
2019,04,20,16,10,15.00
2019,04,20,16,11,15.00
2019,04,20,16,12,15.10
2019,04,20,16,13,15.10
2019,04,20,16,14,15.20
2019,04,20,16,15,15.20
2019,04,20,16,16,15.30
2019,04,20,16,17,15.30
2019,04,20,16,18,15.30
2019,04,20,16,19,15.30
2019,04,20,16,20,15.30
2019,04,20,16,21,15.30
2019,04,20,16,22,15.30
2019,04,20,16,23,15.30
2019,04,20,16,24,15.40
2019,04,20,16,25,15.40
2019,04,20,16,26,15.40
2019,04,20,16,27,15.40
2019,04,20,16,28,15.40
2019,04,20,16,29,15.40
2019,04,20,16,30,15.40
2019,04,20,16,31,15.50
2019,04,20,16,32,15.50
2019,04,20,16,33,15.50
2019,04,20,16,34,15.50
2019,04,20,16,35,15.50
2019,04,20,16,36,15.60
2019,04,20,16,37,15.60
2019,04,20,16,38,15.60
2019,04,20,16,39,15.60
2019,04,20,16,40,15.60
2019,04,20,16,41,15.60
2019,04,20,16,42,15.60
2019,04,20,16,43,15.70
2019,04,20,16,44,15.70
2019,04,20,16,45,15.70
2019,04,20,16,46,15.70
2019,04,20,16,47,15.80
2019,04,20,16,48,15.80
2019,04,20,16,49,15.90
2019,04,20,16,50,15.90
2019,04,20,16,51,15.90
2019,04,20,16,52,15.90
2019,04,20,16,53,15.80
2019,04,20,16,54,15.70
2019,04,20,16,55,15.70
2019,04,20,16,56,15.70
2019,04,20,16,57,15.70
2019,04,20,16,58,15.70
2019,04,20,16,59,15.80
2019,04,20,17,00,15.80
2019,04,20,17,01,15.80
2019,04,20,17,02,15.90
2019,04,20,17,03,15.90
2019,04,20,17,04,15.90
2019,04,20,17,05,15.90
2019,04,20,17,06,15.90
2019,04,20,17,07,15.90
2019,04,20,17,08,16.00
2019,04,20,17,09,16.00
2019,04,20,17,10,16.00
2019,04,20,17,11,16.10
2019,04,20,17,12,16.10
2019,04,20,17,13,16.20
2019,04,20,17,14,16.20
2019,04,20,17,15,16.20
2019,04,20,17,16,16.10
2019,04,20,17,17,16.10
2019,04,20,17,18,16.10
2019,04,20,17,19,16.00
2019,04,20,17,20,16.00
2019,04,20,17,21,16.00
2019,04,20,17,22,16.00
2019,04,20,17,23,15.90
2019,04,20,17,24,15.90
2019,04,20,17,25,15.90
2019,04,20,17,26,15.90
2019,04,20,17,27,15.90
2019,04,20,17,28,16.00
2019,04,20,17,29,16.00
2019,04,20,17,30,16.10
2019,04,20,17,31,16.10
2019,04,20,17,32,16.10
2019,04,20,17,33,16.20
2019,04,20,17,34,16.30
2019,04,20,17,35,16.40
2019,04,20,17,36,16.50
2019,04,20,17,37,16.60
2019,04,20,17,38,16.60
2019,04,20,17,39,16.60
2019,04,20,17,40,16.70
2019,04,20,17,41,16.70
2019,04,20,17,42,16.80
2019,04,20,17,43,16.80